NOAA 16 DEB, 41231

Orbit data source: Space-Track

NOAA 16 DEB, 41231 is space debris in SSO originally from a launch on Thu, 21 Sep 2000 UTC launched from the Air Force Western Test Range (AFWTR). Debris objects in space refer to the collection of defunct objects orbiting the Earth. Examples of debris include non-operational satellites, rocket bodies, and fragments generated from explosions, collisions, or faulty payload assembly.

Loading next visibility...
Identifier
41231, 2000-055EL
Orbit
SSO
Country
Flag of USUS
Related business
Manufacturer
Unknown
Mission
Spacecraft
Bus & Motor
Unknown
Mass
Unknown
Launch date (UTC)
2000-09-21 (25 years ago)
Launch vehicle
Unknown
Launch site
Air Force Western Test Range (AFWTR)
Object type
Payload
Rocket body
Debris
Shape & HBR
Unknown shape, 0.1 m
Radar Cross Section
Small (<0.1 m²)

Expand to show TLE details & history
Last TLE update: 1 day ago

TLE from 1 day ago
0 NOAA 16 DEB
1 41231U 00055EL  26073.62320959  .00017378  00000-0  32263-2 0  9999
2 41231  98.9459 320.0863 0035700 268.8968  90.8142 14.64858415536511
Epoch: 2026-03-14T14:57Z
TLE epoch observation values (Epoch: 2026-03-14T14:57:25.308Z)
Latitude
-0.00004°
Longitude
-76.51088°
Altitude
680.946 km
Speed
7.516 km/s
True Right ascension
21h 20m 20s
True Declination
0° 00' 00"
Sunlit
Object was in daylight at epoch
Visualization orbit readout
Latitude
Unknown
Longitude
Unknown
Altitude
Unknown
Speed
Unknown
Apparent Right ascension
Unknown
Apparent Declination
Unknown
Sunlit
N/A
Visualization observer readout
Local Sidereal Time
01:34:05
Azimuth
Unknown
Elevation
Unknown
Doppler factor
Unknown
Orbital elements
Apogee altitude
699.819 km
Perigee altitude
649.462 km
Semi-major axis
7,052.778 km
Eccentricity
0.00357
Inclination
98.9459°
RAAN
320.0863°
Arg. of periapsis
268.8968°
True anomaly
91.22322°
Mean anomaly
90.8142°
Eccentric anomaly
91.01871°
Mean motion
3.6644 °/min
Orbital period
98.24 mins
BSTAR
0.0032263
Loading maneuver chart data...
Computing Atmospheric mass density...
Loading historical data...
Loading historical data...
Loading historical data...
Loading historical data...
Loading historical data...
Loading historical data...
Loading historical data...

Documentation

Showing up to 5 results
|